Regional Weather Roundup
Issued by NWS

Home | Current Version | Previous Version | Text Only | Print | Product List | Glossary Off
Versions: 1 2 3 4 5 6 7 8 9 10 11 12 13 14 15 16 17 18 19 20 21 22 23 24 25 26 27 28 29 30 31 32 33 34 35 36 37 38 39 40 41 42 43 44 45 46 47 48 49 50

000
ASUS43 KDMX 280701
RWRIA

WEATHER ROUNDUP FOR IOWA
NATIONAL WEATHER SERVICE DES MOINES IA
200 AM CDT FRI APR 28 2017

NOTE: "FAIR" INDICATES FEW OR NO CLOUDS BELOW 12,000 FEET WITH NO
SIGNIFICANT WEATHER AND/OR OBSTRUCTIONS TO VISIBILITY.

* - THESE STATIONS ARE NOT NWS STATIONS...THUS NOT UNDER NWS
QUALITY CONTROL.  THEY ALSO DO NOT REPORT WEATHER SUCH
AS PRECIPITATION OR FOG.

IAZ001>003-012>014-020>022-031>034-043>046-280800-
   NORTHWEST IOWA

CITY           SKY/WX    TMP DP  RH WIND       PRES   REMARKS
CARROLL *      PTCLDY    34  32  93 NE8       29.85S WCI  27
CHEROKEE *     CLEAR     32  30  91 NE9       29.84F WCI  24
DENISON *      CLOUDY    37  32  81 E6        29.84F WCI  33
LE MARS *      CLEAR     34  30  86 NE9G18    29.85F WCI  26
ORANGE CITY *  CLEAR     32  28  86 NE7       29.85F WCI  26
SHELDON *      CLEAR     30  28  93 E6        29.84F WCI  24
SIOUX CITY     CLEAR     38  33  82 E10       29.84R WCI  31
SPENCER        CLEAR     29  27  92 E5        29.86S WCI  24
STORM LAKE *   CLEAR     34  28  80 NE16      29.84F WCI  23
$$

IAZ055>058-069>071-079>083-090>094-280800-
   SOUTHWEST IOWA

CITY           SKY/WX    TMP DP  RH WIND       PRES   REMARKS
ATLANTIC *     CLOUDY    43  34  70 NE13      29.81F
AUDUBON *      CLOUDY    36  30  80 E3        29.85R
CLARINDA *     CLOUDY    52  37  58 SE6       29.82R
COUNCIL BLFS * CLOUDY    46  37  71 E12G20    29.78F
CRESTON *      CLOUDY    45  36  70 NE15      29.82R
HARLAN  *      CLOUDY    39  34  81 NE7       29.85S WCI  34
LAMONI         CLOUDY    46  39  76 NE7       29.81R
RED OAK *      CLOUDY    46  37  71 NE13G20   29.80R
SHENANDOAH *   CLOUDY    50  37  62 E3        29.80R
$$

IAZ047>049-059>061-072>074-084-280800-
   CENTRAL IOWA

CITY           SKY/WX    TMP DP  RH WIND       PRES   REMARKS
AMES           PTCLDY    35  32  88 CALM      29.86R
ANKENY *       MOCLDY    39  32  75 NE5       29.87R
BOONE *        CLOUDY    36  32  87 NE12      29.84R WCI  27
CHARITON *     CLOUDY    43  36  75 NE13      29.82S
DES MOINES     CLOUDY    42  32  67 NE8       29.85S
GRINNELL*      CLOUDY    38  32  79 NE6       29.87R WCI  33
KNOXVILLE *    CLOUDY    41  32  70 NE10      29.83S
MARSHALLTOWN   PTCLDY    35  30  82 NE5       29.85R WCI  31
NEWTON *       CLOUDY    37  30  75 NE7       29.85R WCI  32
PELLA *        CLOUDY    40  33  75 NE3       29.86S
PERRY *          N/A     38  31  76 NE3       29.86R
$$

IAZ004>006-015-016-023>025-035-036-280800-
   NORTH CENTRAL IOWA

CITY           SKY/WX    TMP DP  RH WIND       PRES   REMARKS
ALGONA *       CLEAR     30  28  93 N3        29.87R
CLARION *      CLOUDY    28  28 100 NE8       29.87S WCI  20
ESTHERVILLE    CLEAR     27  26  96 S7        29.86R WCI  19
FORT DODGE *   CLOUDY    32  25  74 NE3       29.87R
MASON CITY     CLEAR     29  25  85 W5        29.88R WCI  24
FOREST CITY *    N/A     30  23  74 CALM      29.87R
WEBSTER CITY * PTCLDY    34  28  80 NE6       29.85R WCI  29
IOWA FALLS *     N/A     34  29  82 N8        29.87R WCI  27
$$

IAZ007>011-017>019-026>030-037>042-050>054-066-280800-
   NORTHEAST IOWA

CITY           SKY/WX    TMP DP  RH WIND       PRES   REMARKS
CEDAR RAPIDS   CLOUDY    34  32  92 CALM      29.86S
CHARLES CITY * CLEAR     32  28  86 NW7       29.87R WCI  26
CLINTON *      PTCLDY    34  32  92 NE3       29.88F
DECORAH *      CLOUDY    34  27  75 VRB7      29.85R WCI  28
DUBUQUE        CLOUDY    32  30  92 CALM      29.86S
MONTICELLO *   CLOUDY    32  32 100 CALM      29.87S
WATERLOO       CLOUDY    31  27  85 N8        29.86S WCI  23
$$

IAZ064-065-067-068-078-280800-
   EAST CENTRAL IOWA

CITY           SKY/WX    TMP DP  RH WIND       PRES   REMARKS
DAVENPORT      PTCLDY    37  34  89 NE6       29.87F WCI  32
IOWA CITY      PTCLDY    40  34  79 CALM      29.88F
MT. PLEASANT * CLOUDY    42  36  79 N14       29.84F
MUSCATINE *    CLOUDY    41  36  81 NE6       29.87S
QUAD CITIES    MOCLDY    39  36  89 CALM      29.87S
$$

IAZ062-063-075>077-085>089-095>099-280800-
   SOUTHEAST IOWA

CITY           SKY/WX    TMP DP  RH WIND       PRES   REMARKS
BURLINGTON     CLOUDY    47  44  90 NE12      29.81F
FAIRFIELD *    CLOUDY    41  34  75 NE14      29.83S
FORT MADISON * CLOUDY    48  45  87 CALM      29.84R
KEOKUK *       CLOUDY    50  46  87 CALM      29.81R
OSKALOOSA *    CLOUDY    40  33  76 NE13      29.84F WCI  33
CENTERVILLE *    N/A     45  39  81 CALM      29.85R
OTTUMWA        CLOUDY    42  35  76 NE12      29.83S
WASHINGTON *   CLOUDY    41  36  81 NE9       29.87R
$$

ABBREVIATIONS USED IN REMARKS
   TC - TEMPERATURES IN CELSIUS
  WCI - WIND CHILL INDEX
   HX - HEAT INDEX
  VSB - VISIBILITY
$$




USA.gov is the U.S. government's official web portal to all federal, state and local government web resources and services.